Regional Weather Roundup
Issued by NWS

Home | Current Version | Previous Version | Text Only | Print | Product List | Glossary On
Versions: 1 2 3 4 5 6 7 8 9 10 11 12 13 14 15 16 17 18 19 20 21 22 23 24 25 26 27
000
ASUS45 KBOU 211107
RWRCO

WEATHER ROUNDUP FOR COLORADO
NATIONAL WEATHER SERVICE DENVER/BOULDER CO
500 AM MDT FRI JUL 21 2017

NOTE: "FAIR" INDICATES FEW OR NO CLOUDS BELOW 12000 FEET WITH NO
SIGNIFICANT WEATHER AND/OR OBSTRUCTIONS TO VISIBILITY.

COZ001>005-013-030-031-211200-
...NORTHWEST COLORADO...

CITY           SKY/WX    TMP DP  RH WIND       PRES   REMARKS
CRAIG          FAIR      59  52  77 S5        30.24S
HAYDEN         FAIR      61  45  55 CALM      30.26F
MEEKER         FAIR      59  56  89 NE3       30.25S
RABBIT EARS PA FAIR      48  43  81 NW12G20   30.53S
STEAMBOAT SPGS FAIR      56  50  79 SE7       30.29F
WALDEN         FAIR      52  46  82 S5        30.37F
$$

COZ006>008-011-211200-
...WEST CENTRAL VALLEYS...

CITY           SKY/WX    TMP DP  RH WIND       PRES   REMARKS
GRAND JUNCTION FAIR      71  57  61 E7        30.12R
MONTROSE       FAIR      63  50  62 SE9       30.22R
EAGLE          FAIR      57  50  77 E3        30.31R
RIFLE          MOCLDY    64  57  78 W3        30.20R
DELTA          FAIR      70  51  50 CALM      30.18S
NUCLA          FAIR      63  48  59 E13       30.25S
$$

COZ017>023-064>068-211200-
...SOUTHWEST COLORADO...

CITY           SKY/WX    TMP DP  RH WIND       PRES   REMARKS
DURANGO        FAIR      57  52  83 CALM      30.27S
CORTEZ         FAIR      58  55  90 NE5       30.21S
PAGOSA SPRINGS CLOUDY    55  52  89 CALM      30.36S
TELLURIDE      FAIR      52  48  86 SE5       30.47S
WOLF CREEK PAS FAIR      45  43  93 SW10      30.69S
$$

COZ009-010-012-014-032>034-037-058>063-211200-
...CENTRAL COLORADO...

CITY           SKY/WX    TMP DP  RH WIND       PRES   REMARKS
ASPEN          FAIR      55  49  80 SW8       30.34S
BUENA VISTA    FAIR      55  46  71 NW7       30.36R
COPPER MTN     FAIR      54  41  62 W7        30.66S
BERTHOUD PASS  FAIR      45  30  57 NW20G25   30.67S
COTTONWOOD PAS FAIR      61  41  48 SW8       30.49R
GUNNISON       FAIR      52  47  83 CALM      30.37S
KREMMLING      CLOUDY    59  54  82 CALM      30.36R
LEADVILLE      FAIR      44  41  89 CALM      30.48R
MONARCH PASS   FAIR      46  41  81 W15       30.74S
SALIDA         FAIR      56  48  76 W7        30.40S
SUNLIGHT       CLOUDY    52  41  66 SW3       30.59R
WILKERSON PASS FAIR      54  37  54 W6        30.62S
$$

COZ069>075-211200-
...SAN LUIS VALLEY/SANGRE DE CRISTO MOUNTAINS...

CITY           SKY/WX    TMP DP  RH WIND       PRES   REMARKS
ALAMOSA        FAIR      55  51  86 E6        30.32S
DEL NORTE      FAIR      56  46  67 W15       30.36S
LA VETA PASS   NOT AVBL
SAGUACHE         N/A    N/A N/A N/A MISG        N/A
$$

COZ035-036-038>040-211200-
...NORTHERN COLORADO FRONT RANGE...

CITY           SKY/WX    TMP DP  RH WIND       PRES   REMARKS
DENVER INTL AP FAIR      66  50  56 NE3       30.12R
DMNS CITY PARK   N/A     68  51  54 N6        30.14R
AURORA         PTCLDY    65  53  65 CALM      30.15R
FRONT RANGE AP FAIR      64  50  59 SE5       30.14R
ERIE MUNI ARPT FAIR      63  51  64 SW6       30.11S
BOULDER MUN AP FAIR      66  50  55 S5        30.13R
CENTENNIAL     FAIR      67  50  54 W3        30.16R
BROOMFIELD     FAIR      64  50  59 W7        30.16R
FORT COLLINS   FAIR      68  54  60 NE3       30.09R
LONGMONT       FAIR      64  53  66 S5        30.12R
$$

COZ041-046-047-076>085-087-088-211200-
...PIKES PEAK/PALMER DIVIDE AND SOUTHERN FOOTHILLS...

CITY           SKY/WX    TMP DP  RH WIND       PRES   REMARKS
COLO. SPRINGS  FAIR      68  53  58 N3        30.17R
A. F. ACADEMY  FAIR      61  49  64 N5        30.19R
SCHRIEVER AFB  FAIR      72  46  39 NW8       30.17R
CHEYENNE MTN   FAIR      72  45  37 CALM      30.17R
ELLICOTT       FAIR     N/A N/A N/A CALM      30.15R
FALCON           N/A     62  48  59 W15       30.23R
FORT CARSON    FAIR      65  51  60 NW10      30.13R
LIMON          FAIR      63  55  75 N12       30.11R
MONUMENT HILL  FAIR      59  46  63 SW9       30.24S
CANON CITY     CLEAR     72  54  53 W13       30.12R
WALSENBURG     FAIR      70  48  46 W12       30.17S
TRINIDAD       FAIR      66  48  52 NW9       30.15R
$$

COZ042>045-048>051-090-091-211200-
...NORTHEAST COLORADO...

CITY           SKY/WX    TMP DP  RH WIND       PRES   REMARKS
GREELEY ARPT   FAIR      63  55  75 CALM      30.07S
AKRON          FAIR      66  54  65 NW12      30.04S
BURLINGTON     FAIR      63  58  83 W9        29.99R
WRAY           NOT AVBL
YUMA           FAIR      68  50  52 NW8       29.99S
STERLING       FAIR      63  59  88 NW7       30.00R
HOLYOKE        FAIR      73  61  64 NW10      29.95S
FORT MORGAN    FAIR      66  53  63 CALM      30.05F
$$

COZ086-089-092>099-211200-
...SOUTHEAST COLORADO...

CITY           SKY/WX    TMP DP  RH WIND       PRES   REMARKS
PUEBLO         FAIR      70  51  51 CALM      30.05R
LA JUNTA       FAIR      67  55  65 SW5       30.01R
LAMAR          FAIR      64  55  72 S8        29.95R
SPRINGFIELD      N/A     64  53  67 S7        30.03R
$$




USA.gov is the U.S. government's official web portal to all federal, state and local government web resources and services.